Weatherford, OK

6:17 PM CST on December 03, 2016 (GMT -0600)
Weatherford

Weather History for KOJA - February, 2013

Change the Weather History Date:

Thursday, February 28, 2013

  Actual Average (KJWG) Record (KJWG)
Temperature  
Mean Temperature - -  
Max Temperature - 57 °F 82 °F (2006)
Min Temperature - 35 °F 4 °F (1962)
Moisture  
Dew Point -    
Average Humidity    
Maximum Humidity    
Minimum Humidity    
Precipitation  
Precipitation 0.00 in - - ()
Sea Level Pressure  
Sea Level Pressure 30.24 in    
Wind  
Wind Speed 8 mph (NW)    
Max Wind Speed 15 mph    
Max Gust Speed 17 mph    
Visibility 10 miles    
Events      
Averages and records for this station are not official NWS values.
T = Trace of Precipitation, MM = Missing Value Source: NWS Daily Summary

Daily Weather History Graph

Daily Weather History Graph

Search for Another Location

Airport or City:

Trip Planner

Search our weather history database for the weather conditions in past years. The results will help you decide how hot, cold, wet, or windy it might be!

Date:

Astronomy

Feb. 28, 2013 Rise Set
Actual Time 7:05 AM CST 6:29 PM CST
Civil Twilight 6:39 AM CST 6:54 PM CST
Nautical Twilight 6:10 AM CST 7:24 PM CST
Astronomical Twilight 5:40 AM CST 7:54 PM CST
Moon 9:48 PM CST (2/28) 8:24 AM CST (2/28)
Length of Visible Light 12h 15m
Length of Day
11h 23m
Waning Gibbous, 90% of the Moon is Illuminated
Feb 28
Waning Gibbous
Mar 4
Last Quarter
Mar 11
New
Mar 19
First Quarter
Mar 27
Full

Hourly Weather History & Observations

Time (CST) Temp. Dew Point Humidity Pressure Visibility Wind Dir Wind Speed Gust Speed Precip Events Conditions
12:15 AM - - N/A% 30.22 in 10.0 mi NW 9.2 mph - N/A   Clear
12:55 AM - - N/A% 30.23 in 10.0 mi NW 8.1 mph - N/A   Clear
1:15 AM - - N/A% 30.23 in 10.0 mi NW 8.1 mph - N/A   Clear
1:35 AM - - N/A% 30.24 in 10.0 mi WNW 9.2 mph - N/A   Clear
2:35 AM - - N/A% 30.24 in 10.0 mi WNW 10.4 mph - N/A   Clear
2:55 AM - - N/A% 30.24 in 10.0 mi WNW 10.4 mph - N/A   Clear
3:15 AM - - N/A% 30.24 in 10.0 mi WNW 9.2 mph - N/A   Clear
3:35 AM - - N/A% 30.24 in 10.0 mi WNW 9.2 mph - N/A   Clear
4:15 AM - - N/A% 30.23 in 10.0 mi WNW 9.2 mph - N/A   Clear
4:35 AM - - N/A% 30.23 in 10.0 mi WNW 10.4 mph - N/A   Clear
4:55 AM - - N/A% 30.23 in 10.0 mi NW 8.1 mph - N/A   Clear
5:15 AM - - N/A% 30.24 in 10.0 mi WNW 6.9 mph - N/A   Clear
5:35 AM - - N/A% 30.24 in 10.0 mi WNW 4.6 mph - N/A   Clear
5:55 AM - - N/A% 30.24 in 10.0 mi WNW 8.1 mph - N/A   Clear
6:15 AM - - N/A% 30.24 in 10.0 mi WNW 8.1 mph - N/A   Clear
6:35 AM - - N/A% 30.25 in 10.0 mi WNW 5.8 mph - N/A   Clear
6:55 AM - - N/A% 30.25 in 10.0 mi WNW 8.1 mph - N/A   Clear
7:15 AM - - N/A% 30.24 in 10.0 mi WNW 8.1 mph - N/A   Clear
7:35 AM - - N/A% 30.25 in 10.0 mi WNW 9.2 mph - N/A   Clear
8:15 AM - - N/A% 30.26 in 10.0 mi NW 8.1 mph - N/A   Clear
8:35 AM - - N/A% 30.27 in 10.0 mi NNW 8.1 mph - N/A   Clear
8:55 AM - - N/A% 30.27 in 10.0 mi NNW 11.5 mph - N/A   Clear
9:15 AM - - N/A% 30.28 in 10.0 mi NNW 10.4 mph - N/A   Clear
9:35 AM - - N/A% 30.28 in 10.0 mi NW 9.2 mph - N/A   Clear
9:55 AM - - N/A% 30.28 in 10.0 mi NW 9.2 mph - N/A   Clear
10:15 AM - - N/A% 30.28 in 10.0 mi NNW 11.5 mph - N/A   Clear
10:35 AM - - N/A% 30.28 in 10.0 mi NNW 9.2 mph 17.3 mph N/A   Clear
10:55 AM - - N/A% 30.28 in 10.0 mi NNW 13.8 mph - N/A   Clear
11:15 AM - - N/A% 30.28 in 10.0 mi NNW 12.7 mph - N/A   Clear
11:35 AM - - N/A% 30.28 in 10.0 mi NNW 13.8 mph - N/A   Clear
11:55 AM - - N/A% 30.28 in 10.0 mi NW 11.5 mph - N/A   Clear
12:15 PM - - N/A% 30.28 in 10.0 mi NW 10.4 mph - N/A   Clear
12:35 PM - - N/A% 30.27 in 10.0 mi NW 13.8 mph - N/A   Clear
12:55 PM - - N/A% 30.27 in 10.0 mi NNW 15.0 mph - N/A   Clear
1:15 PM - - N/A% 30.26 in 10.0 mi NW 12.7 mph 17.3 mph N/A   Clear
1:35 PM - - N/A% 30.25 in 10.0 mi NW 11.5 mph - N/A   Clear
2:15 PM - - N/A% 30.24 in 10.0 mi NNW 15.0 mph - N/A   Clear
3:15 PM - - N/A% 30.23 in 10.0 mi NNW 15.0 mph - N/A   Clear
3:35 PM - - N/A% 30.23 in 10.0 mi NNW 15.0 mph - N/A   Clear
3:55 PM - - N/A% 30.22 in 10.0 mi NNW 15.0 mph - N/A   Clear
4:15 PM - - N/A% 30.22 in 10.0 mi NNW 12.7 mph - N/A   Clear
4:35 PM - - N/A% 30.22 in 10.0 mi NNW 12.7 mph - N/A   Clear
4:55 PM - - N/A% 30.22 in 10.0 mi NNW 13.8 mph - N/A   Clear
5:15 PM - - N/A% 30.22 in 10.0 mi NNW 13.8 mph - N/A   Clear
5:35 PM - - N/A% 30.22 in 10.0 mi NNW 9.2 mph - N/A   Clear
5:55 PM - - N/A% 30.23 in 10.0 mi NNW 5.8 mph - N/A   Clear
6:15 PM - - N/A% 30.22 in 10.0 mi NNW 4.6 mph - N/A   Clear
6:35 PM - - N/A% 30.22 in 10.0 mi Calm Calm - N/A   Clear
6:55 PM - - N/A% 30.23 in 10.0 mi Calm Calm - N/A   Clear
7:15 PM - - N/A% 30.23 in 10.0 mi Calm Calm - N/A   Clear
7:35 PM - - N/A% 30.23 in 10.0 mi Calm Calm - N/A   Clear
7:55 PM - - N/A% 30.23 in 10.0 mi Calm Calm - N/A   Clear
8:15 PM - - N/A% 30.23 in 10.0 mi Calm Calm - N/A   Clear
8:35 PM - - N/A% 30.23 in 10.0 mi Calm Calm - N/A   Clear
8:55 PM - - N/A% 30.23 in 10.0 mi Calm Calm - N/A   Clear
9:15 PM - - N/A% 30.23 in 10.0 mi Calm Calm - N/A   Clear
9:35 PM - - N/A% 30.23 in 10.0 mi Calm Calm - N/A   Clear
9:55 PM - - N/A% 30.23 in 10.0 mi Calm Calm - N/A   Clear
10:15 PM - - N/A% 30.23 in 10.0 mi Calm Calm - N/A   Clear
10:35 PM - - N/A% 30.23 in 10.0 mi Calm Calm - N/A   Clear
10:55 PM - - N/A% 30.23 in 10.0 mi Calm Calm - N/A   Clear
11:15 PM - - N/A% 30.23 in 10.0 mi Calm Calm - N/A   Clear
11:35 PM - - N/A% 30.23 in 10.0 mi North 3.5 mph - N/A   Clear
11:55 PM - - N/A% 30.23 in 10.0 mi Calm Calm - N/A   Clear